This is the latest recevied weather packets stored in our database for station/object JF7BTK-10. If no packets are shown the sender has not sent any weather packets the latest 10 day(s).
| Time | Temp. | Humidity | Pressure | Rain* | Wind** | Luminosity | Snow |
|---|---|---|---|---|---|---|---|
| 1788416887 | 21.67° C | 99% | 1002.8 hPa | 6.35 mm | - | - | - |
| 1788415988 | 22.22° C | 99% | 1002.6 hPa | 4.06 mm | - | - | - |
| 1788415087 | 22.22° C | 99% | 1002 hPa | 2.03 mm | - | - | - |
| 1788414188 | 22.22° C | 99% | 1002 hPa | 2.29 mm | - | - | - |
| 1788413287 | 22.22° C | 98% | 1002.6 hPa | 2.29 mm | - | - | - |
| 1788412387 | 22.78° C | 92% | 1002.9 hPa | 0.76 mm | - | - | - |
| 1788411487 | 23.33° C | 84% | 1003.1 hPa | 0.25 mm | - | - | - |
| 1788410587 | 23.89° C | 83% | 1003.2 hPa | 0 mm | - | - | - |
| 1788409687 | 23.89° C | 83% | 1003.2 hPa | 0 mm | - | - | - |
| 1788408788 | 23.89° C | 84% | 1003.5 hPa | 0 mm | - | - | - |
| 1788407888 | 24.44° C | 84% | 1003.8 hPa | 0 mm | - | - | - |
| 1788406988 | 24.44° C | 82% | 1003.8 hPa | 0 mm | - | - | - |
| 1788406087 | 24.44° C | 85% | 1003.6 hPa | 0 mm | - | - | - |
| 1788405187 | 24.44° C | 85% | 1003.7 hPa | 0 mm | - | - | - |
| 1788404287 | 23.89° C | 88% | 1003.6 hPa | 0 mm | - | - | - |
| 1788403388 | 23.33° C | 88% | 1003.8 hPa | 0 mm | - | - | - |
| 1788402488 | 23.33° C | 90% | 1003.9 hPa | 0 mm | - | - | - |
| 1788402350 | 23.33° C | 90% | 1003.9 hPa | 0 mm | - | - | - |
| 1788401609 | 23.33° C | 92% | 1004.3 hPa | 0 mm | - | - | - |
| 1788400850 | 23.33° C | 92% | 1004 hPa | 0 mm | - | - | - |
| 1788400687 | 23.33° C | 92% | 1003.9 hPa | 0 mm | - | - | - |
| 1788400252 | 22.78° C | 91% | 1004 hPa | 0 mm | - | - | - |
| 1788399951 | 22.78° C | 92% | 1004.3 hPa | 0 mm | - | - | - |
| 1788399788 | 22.78° C | 92% | 1004.4 hPa | 0 mm | - | - | - |
| 1788399652 | 22.78° C | 92% | 1004.6 hPa | 0 mm | - | - | - |
* Rain latest hour (hover to see other rain measurements)
** Current wind speed in m/s (hover to see current wind gust speed)